GW6618 Weather Reports


Display with metric or nautical units.
time (UTC)temp
F
wind
direction
speed
MPH
gust
MPH
rain 1hr
in
rain 24hr
in
rain mn
in
humidity
%
barometer
mb
20260906183304 78 184 6.0 10.0 0.00 0.00 0.00 72 1018.4
20260906182804 78 121 5.0 9.0 0.00 0.00 0.00 72 1018.5
20260906181804 78 168 5.0 7.0 0.00 0.00 0.00 72 1018.5
20260906181304 78 193 4.0 10.0 0.00 0.00 0.00 73 1018.5
20260906180804 78 153 3.0 7.0 0.00 0.00 0.00 73 1018.6
20260906180305 78 113 3.0 7.0 0.00 0.00 0.00 73 1018.5
20260906175804 78 170 5.0 9.0 0.00 0.00 0.00 73 1018.6
20260906175306 78 116 5.0 8.0 0.00 0.00 0.00 74 1018.6
20260906174804 77 136 5.0 8.0 0.00 0.00 0.00 74 1018.7
20260906174304 77 125 3.0 5.0 0.00 0.00 0.00 74 1018.6
20260906173805 77 153 6.0 9.0 0.00 0.00 0.00 74 1018.8
20260906173304 78 148 4.0 9.0 0.00 0.00 0.00 75 1018.8
20260906172804 77 190 5.0 8.0 0.00 0.00 0.00 75 1018.8
20260906171804 77 149 3.0 6.0 0.00 0.00 0.00 76 1018.9
20260906171305 76 122 3.0 8.0 0.00 0.00 0.00 76 1018.9
20260906170303 76 125 3.0 7.0 0.00 0.00 0.00 76 1019.1
20260906165805 76 128 3.0 10.0 0.00 0.00 0.00 77 1019.1
20260906165306 76 170 4.0 8.0 0.00 0.00 0.00 77 1019.2
20260906164804 76 176 3.0 10.0 0.00 0.00 0.00 78 1019.1
20260906164304 76 190 2.0 7.0 0.00 0.00 0.00 77 1019.2
20260906163804 75 94 3.0 6.0 0.00 0.00 0.00 78 1019.2
20260906163304 75 99 3.0 9.0 0.00 0.00 0.00 79 1019.1
20260906162805 75 181 5.0 9.0 0.00 0.00 0.00 78 1019.4
20260906162306 75 117 4.0 10.0 0.00 0.00 0.00 78 1019.4
20260906161804 76 120 6.0 9.0 0.00 0.00 0.00 77 1019.4
20260906160804 76 155 5.0 7.0 0.00 0.00 0.00 78 1019.3
20260906160304 76 193 6.0 9.0 0.00 0.00 0.00 78 1019.4
20260906155804 76 199 7.0 10.0 0.00 0.00 0.00 77 1019.5
20260906155306 76 128 3.0 8.0 0.00 0.00 0.00 78 1019.6
20260906154804 75 114 5.0 9.0 0.00 0.00 0.00 78 1019.6
20260906154304 75 99 3.0 8.0 0.00 0.00 0.00 78 1019.6
20260906153304 75 31 3.0 7.0 0.00 0.00 0.00 79 1019.4
20260906152805 75 112 3.0 7.0 0.00 0.00 0.00 79 1019.4
20260906152307 75 157 5.0 8.0 0.00 0.00 0.00 79 1019.5
20260906151804 75 137 4.0 8.0 0.00 0.00 0.00 79 1019.5
20260906151304 75 122 2.0 6.0 0.00 0.00 0.00 80 1019.5
20260906150804 75 197 5.0 9.0 0.00 0.00 0.00 79 1019.7
20260906150305 75 155 5.0 7.0 0.00 0.00 0.00 78 1019.7
20260906145805 75 154 3.0 8.0 0.00 0.00 0.00 79 1019.5
20260906145306 75 170 4.0 9.0 0.00 0.00 0.00 79 1019.4
20260906144304 75 177 5.0 9.0 0.00 0.00 0.00 80 1019.2
20260906143805 74 130 4.0 9.0 0.00 0.00 0.00 80 1019.3
20260906143304 74 146 4.0 7.0 0.00 0.00 0.00 81 1019.4
20260906142306 74 129 5.0 8.0 0.00 0.00 0.00 81 1019.4
20260906141804 74 148 2.0 6.0 0.00 0.00 0.00 82 1019.4
20260906141304 74 125 5.0 7.0 0.00 0.00 0.00 82 1019.4
20260906140304 73 174 5.0 9.0 0.00 0.00 0.00 82 1019.4
20260906135306 73 151 3.0 7.0 0.00 0.00 0.00 83 1019.4
20260906134804 73 171 3.0 6.0 0.00 0.00 0.00 83 1019.2
20260906134304 73 112 2.0 5.0 0.00 0.00 0.00 84 1019.2
20260906133805 72 114 2.0 5.0 0.00 0.00 0.00 83 1019.4
20260906133304 72 101 3.0 6.0 0.00 0.00 0.00 84 1019.3
20260906132804 72 104 3.0 7.0 0.00 0.00 0.00 84 1019.2
20260906132307 72 135 3.0 7.0 0.00 0.00 0.00 85 1019.1
20260906131804 71 156 3.0 6.0 0.00 0.00 0.00 86 1019.1
20260906131304 71 158 2.0 5.0 0.00 0.00 0.00 86 1019.1
20260906130804 71 94 2.0 5.0 0.00 0.00 0.00 87 1019.0
20260906130304 70 115 2.0 5.0 0.00 0.00 0.00 88 1019.1
20260906125306 70 127 2.0 5.0 0.00 0.00 0.00 89 1019.1
20260906124805 70 150 1.0 6.0 0.00 0.00 0.00 90 1019.2
20260906124305 69 101 0.0 2.0 0.00 0.00 0.00 90 1019.2
20260906123804 69 120 1.0 2.0 0.00 0.00 0.00 91 1019.1
20260906123306 69 242 1.0 2.0 0.00 0.00 0.00 91 1018.9
20260906122804 69 117 0.0 1.0 0.00 0.00 0.00 91 1018.9
20260906122306 69 117 0.0 2.0 0.00 0.00 0.00 91 1019.0
20260906121804 69 117 0.0 0.0 0.00 0.00 0.00 91 1019.1
20260906121305 69 117 0.0 0.0 0.00 0.00 0.00 91 1019.1
20260906120804 69 117 0.0 0.0 0.00 0.00 0.00 91 1019.0
20260906120304 69 117 0.0 0.0 0.00 0.00 0.00 91 1018.8
20260906115805 69 117 0.0 0.0 0.00 0.00 0.00 91 1018.8
20260906114304 69 117 0.0 0.0 0.00 0.00 0.00 90 1018.8
20260906113805 69 117 0.0 2.0 0.00 0.00 0.00 90 1018.9
20260906113305 69 117 0.0 2.0 0.00 0.00 0.00 90 1018.7
20260906112804 69 117 0.0 2.0 0.00 0.00 0.00 90 1018.7
20260906111806 69 117 0.0 1.0 0.00 0.00 0.00 90 1018.7
20260906111304 69 117 0.0 2.0 0.00 0.00 0.00 90 1018.6
20260906110804 69 117 0.0 2.0 0.00 0.00 0.00 90 1018.5
20260906110304 69 117 0.0 2.0 0.00 0.00 0.00 89 1018.5
20260906105804 69 117 1.0 2.0 0.00 0.00 0.00 89 1018.3
20260906105306 69 117 0.0 2.0 0.00 0.00 0.00 89 1018.3
20260906104805 70 117 0.0 0.0 0.00 0.00 0.00 89 1018.4
20260906104305 70 117 0.0 1.0 0.00 0.00 0.00 89 1018.5
20260906103304 70 117 1.0 2.0 0.00 0.00 0.00 88 1018.5
20260906102804 70 175 0.0 2.0 0.00 0.00 0.00 88 1018.4
20260906102307 70 175 0.0 0.0 0.00 0.00 0.00 87 1018.4
20260906101804 70 175 0.0 2.0 0.00 0.00 0.00 87 1018.5
20260906101304 71 175 0.0 0.0 0.00 0.00 0.00 87 1018.4
20260906100804 71 175 0.0 2.0 0.00 0.00 0.00 87 1018.3
20260906100304 71 175 0.0 2.0 0.00 0.00 0.00 87 1018.4
20260906095805 71 175 1.0 2.0 0.00 0.00 0.00 86 1018.3
20260906095306 71 175 0.0 2.0 0.00 0.00 0.00 86 1018.1
20260906093805 72 182 2.0 3.0 0.00 0.00 0.00 85 1017.6
20260906093304 72 181 2.0 3.0 0.00 0.00 0.00 85 1017.6
20260906092804 72 173 0.0 2.0 0.00 0.00 0.00 85 1017.6
20260906092306 72 173 1.0 3.0 0.00 0.00 0.00 84 1017.5
20260906091804 72 185 1.0 2.0 0.00 0.00 0.00 84 1017.5
20260906091304 72 152 0.0 3.0 0.00 0.00 0.00 84 1017.5
20260906090804 72 176 2.0 5.0 0.00 0.00 0.00 84 1017.5
20260906085804 72 174 1.0 3.0 0.00 0.00 0.00 84 1017.6
20260906085306 72 165 1.0 5.0 0.00 0.00 0.00 84 1017.7
20260906083804 72 187 2.0 3.0 0.00 0.00 0.00 84 1017.6
20260906083304 72 119 0.0 2.0 0.00 0.00 0.00 84 1017.6
20260906082804 72 112 1.0 2.0 0.00 0.00 0.00 83 1017.5
20260906082306 72 140 1.0 2.0 0.00 0.00 0.00 84 1017.5
20260906081804 72 137 2.0 5.0 0.00 0.00 0.00 84 1017.5
20260906081304 72 114 0.0 3.0 0.00 0.00 0.00 84 1017.5
20260906080304 73 136 0.0 0.0 0.00 0.00 0.00 83 1017.5
20260906075306 73 136 0.0 0.0 0.00 0.00 0.00 83 1017.4
20260906074804 73 136 0.0 1.0 0.00 0.00 0.00 82 1017.6
20260906074304 73 71 1.0 3.0 0.00 0.00 0.00 82 1017.4
20260906073804 73 161 1.0 2.0 0.00 0.00 0.00 82 1017.5
20260906073303 74 159 2.0 5.0 0.00 0.00 0.00 82 1017.5
20260906072804 74 100 1.0 3.0 0.00 0.00 0.00 82 1017.6
20260906072306 74 102 1.0 3.0 0.00 0.00 0.00 82 1017.7
20260906071804 74 164 2.0 3.0 0.00 0.00 0.00 82 1017.7
20260906071304 74 127 0.0 2.0 0.00 0.00 0.00 81 1017.7
20260906070805 74 127 1.0 2.0 0.00 0.00 0.00 81 1017.9
20260906070304 74 127 0.0 2.0 0.00 0.00 0.00 81 1017.9
20260906065804 74 127 0.0 0.0 0.00 0.00 0.00 81 1017.9
20260906065305 74 127 0.0 1.0 0.00 0.00 0.00 81 1018.0
20260906064304 74 127 0.0 2.0 0.00 0.00 0.00 80 1018.0
20260906063804 75 127 0.0 1.0 0.00 0.00 0.00 80 1018.1
20260906063304 75 127 0.0 1.0 0.00 0.00 0.00 80 1018.0
20260906062804 75 127 1.0 3.0 0.00 0.00 0.00 80 1018.0
20260906062306 75 115 1.0 3.0 0.00 0.00 0.00 80 1018.0
20260906061804 75 134 3.0 5.0 0.00 0.00 0.00 81 1017.9
20260906061304 75 130 1.0 3.0 0.00 0.00 0.00 81 1018.0
20260906060804 74 129 1.0 2.0 0.00 0.00 0.00 82 1017.9
20260906060305 74 173 1.0 2.0 0.00 0.00 0.00 82 1018.0
20260906055804 74 133 0.0 1.0 0.00 0.00 0.00 82 1018.0
20260906055306 74 157 0.0 0.0 0.00 0.00 0.00 82 1018.1
20260906054804 74 157 0.0 0.0 0.00 0.00 0.00 82 1018.0
20260906053804 74 138 0.0 0.0 0.00 0.00 0.00 83 1017.8
20260906053304 74 138 0.0 0.0 0.00 0.00 0.00 83 1017.9
20260906052804 74 138 0.0 1.0 0.00 0.00 0.00 83 1017.8
20260906052306 74 138 0.0 0.0 0.00 0.00 0.00 83 1017.9
20260906050826 74 138 0.0 0.0 0.00 0.00 0.00 82 1017.9
20260906050305 74 138 0.0 0.0 0.00 0.00 0.00 82 1017.9
20260906045804 74 138 0.0 0.0 0.00 0.00 0.00 82 1018.0
20260906045306 74 138 0.0 0.0 0.00 0.00 0.00 82 1018.0
20260906044804 74 138 0.0 0.0 0.00 0.00 0.00 82 1018.1
20260906044305 74 138 0.0 0.0 0.00 0.00 0.00 82 1018.2
20260906043804 74 138 0.0 0.0 0.00 0.00 0.00 82 1018.2
20260906043304 74 138 0.0 0.0 0.00 0.00 0.00 82 1018.2
20260906042804 74 138 0.0 0.0 0.00 0.00 0.00 82 1018.3
20260906042306 74 138 0.0 0.0 0.00 0.00 0.00 82 1018.3
20260906041805 74 138 0.0 0.0 0.00 0.00 0.00 82 1018.3
20260906041304 74 138 0.0 0.0 0.00 0.00 0.00 81 1018.3
20260906040804 74 138 0.0 0.0 0.00 0.00 0.00 81 1018.3
20260906040304 74 138 0.0 0.0 0.00 0.00 0.00 81 1018.2
20260906035804 74 138 0.0 0.0 0.00 0.00 0.00 81 1018.2
20260906035306 75 138 0.0 0.0 0.00 0.00 0.00 81 1018.3
20260906034805 74 138 0.0 0.0 0.00 0.00 0.00 81 1018.2
20260906034304 75 138 0.0 0.0 0.00 0.00 0.00 80 1018.3
20260906033804 75 138 0.0 0.0 0.00 0.00 0.00 80 1018.3
20260906033304 75 138 0.0 0.0 0.00 0.00 0.00 80 1018.3
20260906032805 75 138 0.0 0.0 0.00 0.00 0.00 79 1018.4
20260906032306 76 138 0.0 0.0 0.00 0.00 0.00 79 1018.3
20260906031804 76 138 0.0 0.0 0.00 0.00 0.00 78 1018.3
20260906031304 76 138 0.0 0.0 0.00 0.00 0.00 78 1018.3
20260906030805 76 138 0.0 0.0 0.00 0.00 0.00 78 1018.2
20260906030305 76 138 0.0 1.0 0.00 0.00 0.00 77 1018.2
20260906025805 77 174 0.0 2.0 0.00 0.00 0.00 77 1018.3
20260906025306 77 174 0.0 5.0 0.00 0.00 0.00 77 1018.3
20260906023804 77 160 1.0 3.0 0.00 0.00 0.00 76 1018.4
20260906023304 77 158 1.0 2.0 0.00 0.00 0.00 75 1018.3
20260906022804 77 128 2.0 6.0 0.00 0.00 0.00 75 1018.3
20260906022307 78 186 1.0 6.0 0.00 0.00 0.00 75 1018.1
20260906021804 78 140 2.0 5.0 0.00 0.00 0.00 75 1017.8
20260906021304 78 174 2.0 5.0 0.00 0.00 0.00 75 1017.8
20260906020304 78 136 2.0 3.0 0.00 0.00 0.00 75 1017.5
20260906015306 78 164 3.0 7.0 0.00 0.00 0.00 74 1017.3
20260906014804 79 195 2.0 6.0 0.00 0.00 0.00 74 1017.1
20260906014304 79 160 4.0 6.0 0.00 0.00 0.00 73 1017.0
20260906013804 79 112 3.0 6.0 0.00 0.00 0.00 72 1016.8
20260906013304 79 132 2.0 6.0 0.00 0.00 0.00 71 1016.5
20260906012306 80 133 1.0 6.0 0.00 0.00 0.00 69 1016.3
20260906011804 80 124 2.0 5.0 0.00 0.00 0.00 69 1016.3
20260906011304 80 78 1.0 2.0 0.00 0.00 0.00 68 1016.0
20260906010805 80 115 1.0 2.0 0.00 0.00 0.00 68 1015.9
20260906010304 80 115 0.0 2.0 0.00 0.00 0.00 67 1015.7
20260906004804 81 126 1.0 2.0 0.00 0.00 0.00 66 1015.8
20260906004304 81 123 1.0 2.0 0.00 0.00 0.00 65 1015.8
20260906003804 82 91 1.0 2.0 0.00 0.00 0.00 64 1015.5
20260906003304 82 117 0.0 2.0 0.00 0.00 0.00 64 1015.5
20260906002804 82 117 0.0 3.0 0.00 0.00 0.00 63 1015.4
20260906002306 82 85 2.0 3.0 0.00 0.00 0.00 62 1015.4
20260906001804 82 140 2.0 5.0 0.00 0.00 0.00 62 1015.3
20260906001304 83 88 2.0 5.0 0.00 0.00 0.00 62 1015.3
20260906000804 83 98 2.0 6.0 0.00 0.00 0.00 61 1015.5
20260905235804 83 77 1.0 3.0 0.00 0.00 0.00 60 1015.6
20260905235306 83 106 1.0 3.0 0.00 0.00 0.00 60 1015.5
20260905234804 83 98 2.0 5.0 0.00 0.00 0.00 61 1015.7
20260905234304 84 141 2.0 6.0 0.00 0.00 0.00 61 1015.7
20260905233304 84 104 3.0 5.0 0.00 0.00 0.00 60 1015.4
20260905232805 85 119 2.0 3.0 0.00 0.00 0.00 60 1015.3
20260905232306 85 125 1.0 6.0 0.00 0.00 0.00 61 1015.3
20260905231804 85 101 3.0 6.0 0.00 0.00 0.00 60 1015.3
20260905231304 85 120 3.0 6.0 0.00 0.00 0.00 60 1015.4
20260905230304 86 63 1.0 5.0 0.00 0.00 0.00 60 1015.2
20260905225805 86 37 2.0 3.0 0.00 0.00 0.00 60 1015.0
20260905225306 86 69 2.0 6.0 0.00 0.00 0.00 60 1015.0
20260905224804 86 85 2.0 6.0 0.00 0.00 0.00 60 1014.9
20260905224305 86 134 2.0 5.0 0.00 0.00 0.00 60 1015.0
20260905223804 86 69 2.0 5.0 0.00 0.00 0.00 59 1015.0
20260905223304 86 23 3.0 6.0 0.00 0.00 0.00 58 1015.2
20260905222306 86 41 2.0 7.0 0.00 0.00 0.00 58 1015.1
20260905221804 86 78 2.0 5.0 0.00 0.00 0.00 58 1015.2
20260905220804 86 78 3.0 5.0 0.00 0.00 0.00 58 1015.3
20260905220305 86 32 3.0 6.0 0.00 0.00 0.00 57 1015.3
20260905215306 86 71 2.0 6.0 0.00 0.00 0.00 57 1015.3
20260905214805 86 49 2.0 7.0 0.00 0.00 0.00 58 1015.3
20260905214305 86 63 2.0 7.0 0.00 0.00 0.00 59 1015.3
20260905213304 86 58 2.0 6.0 0.00 0.00 0.00 59 1015.4
20260905212804 86 114 3.0 6.0 0.00 0.00 0.00 58 1015.4
20260905211805 86 61 2.0 5.0 0.00 0.00 0.00 61 1015.1
20260905211305 85 202 5.0 13.0 0.00 0.00 0.00 61 1015.1
20260905210805 85 86 3.0 9.0 0.00 0.00 0.00 62 1015.3
20260905210304 86 47 2.0 6.0 0.00 0.00 0.00 62 1015.6
20260905205805 86 91 4.0 6.0 0.00 0.00 0.00 62 1015.8
20260905204804 85 51 3.0 7.0 0.00 0.00 0.00 62 1016.0
20260905204304 85 46 3.0 7.0 0.00 0.00 0.00 61 1016.1
20260905203805 86 104 3.0 6.0 0.00 0.00 0.00 61 1016.3
20260905203304 85 44 3.0 5.0 0.00 0.00 0.00 62 1016.4
20260905202804 85 89 2.0 5.0 0.00 0.00 0.00 63 1016.4
20260905202306 84 55 2.0 5.0 0.00 0.00 0.00 65 1016.5
20260905201804 84 77 1.0 3.0 0.00 0.00 0.00 64 1016.6
20260905200303 85 139 2.0 5.0 0.00 0.00 0.00 64 1017.0
20260905195805 85 95 2.0 6.0 0.00 0.00 0.00 63 1017.0
20260905195306 85 123 2.0 8.0 0.00 0.00 0.00 63 1017.1
20260905194804 84 135 3.0 6.0 0.00 0.00 0.00 64 1017.2
20260905194306 84 83 3.0 6.0 0.00 0.00 0.00 64 1017.1
20260905193804 84 150 1.0 3.0 0.00 0.00 0.00 64 1017.4
20260905193304 84 149 2.0 5.0 0.00 0.00 0.00 63 1017.3
20260905192805 83 69 1.0 5.0 0.00 0.00 0.00 64 1017.3
20260905192306 83 108 1.0 6.0 0.00 0.00 0.00 66 1017.3
20260905191804 83 131 2.0 5.0 0.00 0.00 0.00 65 1017.3
20260905191304 83 11 2.0 3.0 0.00 0.00 0.00 66 1017.4
20260905190304 82 81 2.0 3.0 0.00 0.00 0.00 67 1017.4
20260905185804 82 347 1.0 3.0 0.00 0.00 0.00 67 1017.5
20260905185306 82 103 1.0 2.0 0.00 0.00 0.00 67 1017.5
20260905184803 82 67 2.0 3.0 0.00 0.00 0.00 68 1017.6
20260905184304 82 56 1.0 3.0 0.00 0.00 0.00 69 1017.6
20260905183804 82 76 2.0 3.0 0.00 0.00 0.00 69 1017.6